TimeCST,TemperatureF,Dew PointF,Humidity,Sea Level PressureIn,VisibilityMPH,Wind Direction,Wind SpeedMPH,Gust SpeedMPH,PrecipitationIn,Events,Conditions,WindDirDegrees,DateUTC
12:10 AM,57.2,55.4,94,30.31,6.0,NE,9.2,-,0.00,Rain,Light Rain,50,2013-12-26 06:10:00
12:48 AM,57.2,55.4,94,30.31,5.0,NE,12.7,-,0.04,Rain,Light Rain,40,2013-12-26 06:48:00
12:51 AM,57.0,55.0,93,30.31,5.0,NE,10.4,-,0.04,Rain,Light Rain,40,2013-12-26 06:51:00
1:51 AM,57.0,52.0,83,30.31,10.0,NE,11.5,-,0.00,,Light Drizzle,40,2013-12-26 07:51:00
2:51 AM,55.9,52.0,87,30.30,10.0,NE,12.7,-,0.00,,Light Drizzle,40,2013-12-26 08:51:00
3:51 AM,55.0,51.1,86,30.29,10.0,NE,15.0,-,0.00,,Overcast,40,2013-12-26 09:51:00
4:51 AM,54.0,50.0,86,30.28,10.0,NE,15.0,-,N/A,,Overcast,40,2013-12-26 10:51:00
5:51 AM,55.0,48.9,80,30.30,10.0,NE,15.0,-,N/A,,Overcast,40,2013-12-26 11:51:00
6:11 AM,53.6,48.2,82,30.30,10.0,NE,16.1,-,N/A,,Overcast,40,2013-12-26 12:11:00
6:51 AM,54.0,46.0,75,30.32,10.0,NE,15.0,-,N/A,,Overcast,40,2013-12-26 12:51:00
7:51 AM,54.0,44.1,69,30.34,10.0,NE,16.1,-,N/A,,Overcast,40,2013-12-26 13:51:00
8:51 AM,55.9,43.0,62,30.35,10.0,NE,12.7,-,N/A,,Overcast,40,2013-12-26 14:51:00
9:51 AM,55.0,45.0,69,30.37,10.0,NE,15.0,-,N/A,,Overcast,40,2013-12-26 15:51:00
10:51 AM,55.9,46.0,69,30.38,10.0,NE,15.0,-,N/A,,Overcast,40,2013-12-26 16:51:00
11:51 AM,55.0,48.0,77,30.37,8.0,NE,11.5,-,0.00,Rain,Light Rain,40,2013-12-26 17:51:00
12:51 PM,55.9,48.9,77,30.34,6.0,North,12.7,-,0.01,Rain,Light Rain,10,2013-12-26 18:51:00
1:51 PM,54.0,50.0,86,30.31,4.0,North,13.8,-,0.00,,Overcast,360,2013-12-26 19:51:00
2:51 PM,54.0,50.0,86,30.30,4.0,North,15.0,-,N/A,,Overcast,10,2013-12-26 20:51:00
3:01 PM,53.6,50.0,88,30.30,5.0,North,13.8,-,N/A,,Overcast,10,2013-12-26 21:01:00
3:51 PM,54.0,48.9,83,30.30,5.0,North,13.8,-,N/A,,Overcast,10,2013-12-26 21:51:00
4:51 PM,54.0,48.9,83,30.32,7.0,North,10.4,-,0.00,Rain,Light Rain,10,2013-12-26 22:51:00
5:51 PM,54.0,48.9,83,30.32,8.0,NNE,12.7,-,0.00,,Overcast,20,2013-12-26 23:51:00
6:51 PM,52.0,46.9,83,30.32,9.0,NNE,13.8,-,0.00,Rain,Light Rain,20,2013-12-27 00:51:00
7:51 PM,51.1,46.9,86,30.34,9.0,NNE,13.8,-,0.01,Rain,Light Rain,20,2013-12-27 01:51:00
8:51 PM,51.1,48.0,89,30.35,9.0,North,13.8,-,0.01,Rain,Light Rain,10,2013-12-27 02:51:00
9:51 PM,52.0,48.0,86,30.35,9.0,NNE,15.0,-,0.00,Rain,Light Rain,30,2013-12-27 03:51:00
10:51 PM,52.0,48.0,86,30.35,7.0,NE,10.4,-,0.01,Rain,Light Rain,40,2013-12-27 04:51:00
11:51 PM,51.1,48.0,89,30.35,6.0,NE,12.7,-,0.02,Rain,Light Rain,40,2013-12-27 05:51:00